Weather History for Lafayette, LA

Change the Weather History Date:

Saturday, February 23, 2013

  Actual Average Record
Temperature  
Mean Temperature 58 °F 58 °F  
Max Temperature 65 °F 67 °F 87 °F (1910)
Min Temperature 50 °F 48 °F 25 °F (1911)
Degree Days  
Heating Degree Days 7 8  
Month to date heating degree days 155 237  
Since 1 July heating degree days 963 1193  
Growing Degree Days 8 (Base 50)    
Moisture  
Dew Point 48 °F    
Average Humidity 75    
Maximum Humidity 89    
Minimum Humidity 60    
Precipitation  
Precipitation 0.00 in 0.15 in 2.41 in (2004)
Month to date precipitation 3.76 3.74  
Year to date precipitation 14.94 9.41  
Snow  
Snow 0.00 in 0.00 in T in (1968)
Month to date snowfall 0.0 0.0  
Since 1 July snowfall 0.0 0.0  
Snow Depth 0.00 in    
Sea Level Pressure  
Sea Level Pressure 29.93 in    
Wind  
Wind Speed 8 mph (NNE)    
Max Wind Speed 14 mph    
Max Gust Speed 17 mph    
Visibility 10 miles    
Events      
T = Trace of Precipitation, MM = Missing Value Source: NWS Daily Summary

Daily Weather History Graph

Daily Weather History Graph

Search for Another Location

Airport:

Trip Planner

Search our weather history database for the weather conditions in past years. The results will help you decide how hot, cold, wet, or windy it might be!

Date:

Astronomy

Feb. 23, 2013 Rise Set
Actual Time 6:40 AM CST 6:02 PM CST
Civil Twilight 6:15 AM CST 6:27 PM CST
Nautical Twilight 5:47 AM CST 6:54 PM CST
Astronomical Twilight 5:20 AM CST 7:22 PM CST
Moon 4:17 PM CST (2/23) 4:57 AM CST (2/23)
Length of Visible Light 12h 11m
Length of Day
11h 22m
Waxing Gibbous, 95% of the Moon is Illuminated
Feb 23
Waxing Gibbous
Feb 25
Full
Mar 4
Last Quarter
Mar 11
New
Mar 19
First Quarter

Hourly Weather History & Observations

Time (CST) Temp. Dew Point Humidity Pressure Visibility Wind Dir Wind Speed Gust Speed Precip Events Conditions
12:53 AM 57.9 °F 48.9 °F 72% 29.93 in 10.0 mi NE 9.2 mph - N/A   Overcast
1:53 AM 57.0 °F 50.0 °F 77% 29.94 in 10.0 mi NNE 11.5 mph - N/A   Overcast
2:49 AM 55.4 °F 50.0 °F 82% 29.94 in 10.0 mi NNE 11.5 mph - N/A   Overcast
2:53 AM 55.9 °F 50.0 °F 80% 29.94 in 10.0 mi North 10.4 mph - N/A   Overcast
3:53 AM 53.1 °F 48.0 °F 83% 29.92 in 10.0 mi NNE 12.7 mph - N/A   Mostly Cloudy
4:53 AM 52.0 °F 48.0 °F 86% 29.90 in 10.0 mi NNE 13.8 mph - N/A   Scattered Clouds
5:53 AM 51.1 °F 46.9 °F 86% 29.91 in 10.0 mi NNE 6.9 mph - N/A   Clear
6:53 AM 51.1 °F 46.9 °F 86% 29.95 in 10.0 mi North 5.8 mph - N/A   Clear
7:53 AM 52.0 °F 46.9 °F 83% 29.97 in 10.0 mi North 10.4 mph - N/A   Partly Cloudy
8:53 AM 53.1 °F 46.9 °F 80% 29.98 in 10.0 mi North 10.4 mph - N/A   Scattered Clouds
9:53 AM 54.0 °F 46.9 °F 77% 29.94 in 10.0 mi ENE 9.2 mph - N/A   Clear
10:53 AM 57.0 °F 48.0 °F 72% 29.96 in 10.0 mi NNE 6.9 mph - N/A   Partly Cloudy
11:53 AM 57.9 °F 48.9 °F 72% 29.95 in 10.0 mi North 5.8 mph - N/A   Clear
12:53 PM 61.0 °F 48.9 °F 64% 29.93 in 10.0 mi North 4.6 mph - N/A   Clear
1:53 PM 62.1 °F 50.0 °F 65% 29.92 in 10.0 mi NNE 5.8 mph - N/A   Mostly Cloudy
2:53 PM 62.1 °F 50.0 °F 65% 29.91 in 10.0 mi North 6.9 mph - N/A   Overcast
3:53 PM 63.0 °F 50.0 °F 63% 29.90 in 10.0 mi North 11.5 mph - N/A   Scattered Clouds
4:53 PM 64.0 °F 50.0 °F 60% 29.88 in 10.0 mi NE 6.9 mph - N/A   Clear
5:53 PM 61.0 °F 48.9 °F 64% 29.90 in 10.0 mi North 6.9 mph - N/A   Clear
6:53 PM 59.0 °F 48.0 °F 67% 29.92 in 10.0 mi North 4.6 mph - N/A   Clear
7:53 PM 57.0 °F 46.9 °F 69% 29.93 in 10.0 mi North 6.9 mph - N/A   Clear
8:53 PM 54.0 °F 46.9 °F 77% 29.95 in 10.0 mi NNE 6.9 mph - N/A   Clear
9:53 PM 53.1 °F 46.9 °F 80% 29.96 in 10.0 mi NNE 6.9 mph - N/A   Clear
10:53 PM 53.1 °F 46.0 °F 77% 29.97 in 10.0 mi NNE 8.1 mph - N/A   Clear
11:53 PM 50.0 °F 44.1 °F 80% 29.96 in 10.0 mi NNE 6.9 mph - N/A   Clear